Regional Weather Roundup
Issued by NWS

Home | Current Version | Previous Version | Graphics & Text | Print | Product List | Glossary On
Versions: 1 2 3 4 5 6 7 8 9 10 11 12 13 14 15 16 17 18 19 20 21 22 23 24 25 26 27 28 29 30 31 32 33 34 35 36 37 38 39 40 41 42 43 44 45 46 47 48 49 50
000
ASUS43 KBIS 310602
RWRND

NORTH DAKOTA REGIONAL WEATHER ROUNDUP
NATIONAL WEATHER SERVICE BISMARCK ND
100 AM CDT TUE MAY 31 2016

NOTE: "FAIR" INDICATES FEW OR NO CLOUDS BELOW 12,000 FEET WITH NO
SIGNIFICANT WEATHER AND/OR OBSTRUCTIONS TO VISIBILITY.


NDZ001>003-009>011-017-310700-
NORTHWEST NORTH DAKOTA

CITY           SKY/WX    TMP DP  RH WIND       PRES   REMARKS
WILLISTON      CLOUDY    53  50  89 SW5       29.86F
6HR MIN TEMP:  52; 6HR MAX TEMP:  56; 6HR PCP:  0.24;

MINOT          RAIN      58  55  90 N9        29.81F FOG
$$

NDZ018>021-031>035-040>046-310700-
SOUTHWEST NORTH DAKOTA

CITY           SKY/WX    TMP DP  RH WIND       PRES   REMARKS
BISMARCK       CLOUDY    56  54  93 W14       29.82S
6HR MIN TEMP:  56; 6HR MAX TEMP:  62; 6HR PCP:  0.60;

DICKINSON      CLEAR     46  43  89 W13       29.88S
GARRISON         N/A     55  53  93 N6        29.82F
6HR MIN TEMP:  55; 6HR MAX TEMP:  56; 6HR PCP:  0.35;

HETTINGER ARPT CLEAR     47  44  90 W12       29.96R
$$

NDZ004>008-012>016-024-026-027-054-310700-
NORTHEAST NORTH DAKOTA

CITY           SKY/WX    TMP DP  RH WIND       PRES   REMARKS
GRAND FORKS    HVY RAIN  59  56  89 E20G29    29.76F FOG
GRND FRKS AFB  LGT RAIN  59  57  94 E21G26    29.75F
DEVILS LAKE    RAIN      58  55  90 E12G20    29.74F
$$

NDZ022-023-025-028>030-036>039-047>053-310700-
SOUTHEAST NORTH DAKOTA

CITY           SKY/WX    TMP DP  RH WIND       PRES   REMARKS
FARGO          LGT RAIN  62  58  86 NE5       29.74F
6HR MIN TEMP:  62; 6HR MAX TEMP:  82; 6HR PCP:  0.16;

JAMESTOWN      CLOUDY    57  55  93 S3        29.73F
$$




USA.gov is the U.S. government's official web portal to all federal, state and local government web resources and services.